Location: Cerroniocc
(13.7547°S, 72.0222°W)
Time: 18:16:07
(UTC+00:00)

Cosmos 1340 Rocket - Pass Details

Date: 05 July 2020
Orbit: 528 x 560 km, 81.2° (Epoch: 11 August)

Event Time Altitude Azimuth Distance (km) Brightness Sun altitude
Rises 23:27:39 0° 9° (N) 2,669 6.5 -13.1°
Reaches altitude 10° 23:29:54 10° 17° (NNE) 1,780 5.5 -13.6°
Maximum altitude 23:33:33 38° 86° (E) 824 3.2 -14.5°
Enters shadow 23:35:29 23° 139° (SE) 1,176 4.0 -14.9°
